Location: Kawakawa
(35.3830°S, 174.0670°E)
Time: 17:23:35
(UTC+12:00)

IRS-1C Rocket - Pass Details

Date: 15 August 2020
Orbit: 800 x 806 km, 99.0° (Epoch: 25 September)

Event Time Altitude Azimuth Distance (km) Brightness Sun altitude
Rises 18:53:46 0° 161° (SSE) 3,353 7.0 -13.1°
Reaches altitude 10° 18:56:12 10° 155° (SSE) 2,415 6.3 -13.6°
Maximum altitude 19:01:23 50° 80° (E) 1,033 4.3 -14.7°
Drops below altitude 10° 19:06:29 10° 5° (N) 2,386 6.6 -15.7°
Sets 19:08:53 0° 359° (N) 3,309 7.4 -16.2°
